{"data":{"norad_id":56527,"epoch":"2026-09-20T12:27:07.979040Z","epoch_age_seconds":113174,"freshness":"FRESH","line1":"1 56527U 23065AA  26263.51884235 -.00000527  00000+0 -96270-5 0  9990","line2":"2 56527  42.9981 195.8095 0000712  59.9168 300.1755 15.27581182186359","mean_motion":15.27581182,"eccentricity":7.12e-5,"inclination_deg":42.9981,"raan_deg":195.8095,"arg_perigee_deg":59.9168,"mean_anomaly_deg":300.1755,"bstar":-9.627e-6,"rev_number":18635,"period_min":94.266675772653,"perigee_km":482.55704051067,"apogee_km":483.53407290675,"semimajor_km":6861.1825567087,"source":"CELESTRAK","updated_at":"2026-09-21T09:00:33.473867Z"}}